[[{"header":{"parameterUnit":"m.s-1","parameterCategory":1,"la1":30.2991,"la2":30.254,"lo1":-89.0895,"lo2":-89.0444,"dy":0.0017,"dx":0.0017,"nx":28,"ny":28,"refTime":"2025-07-11T21:00:00:Z","depth":0,"parameterNumber":2,"parameterNumberName":"U-component_of_WINDS"},"data":[0,0,0,0,0,0,0,0,0,0,0,0,0,0,0,0,0,0,0,0,0,0,0,0,0,0,0,0,0,0,0,0,0,0,0,0,0,0,0,0,0,0,0,0,0,0,0,0,0,0,0,0,0,0,0,0,0,0,0.0866,0.0867,0,0.0956,0.0957,0.0958,0.1019,0.1019,0.102,0.102,0.1118,0.1121,0.1123,0,0,0,0,0,0,0,0,0,0,0,0,0,0.0753,0.0755,0.0866,0.0867,0.0869,0.0956,0.0957,0.0959,0.1019,0.1019,0.102,0.102,0.1118,0.112,0.1123,0,0,0,0,0,0,0,0,0,0,0,0,0,0.0819,0.0755,0.0866,0.0909,0.0914,0.0956,0.0957,0.0959,0.1019,0.1019,0.102,0.102,0.1117,0.112,0.1123,0.1132,0,0,0.1134,0.1135,0,0,0,0,0,0,0,0,0.0815,0.0823,0.0902,0.0906,0.0911,0.0977,0.0954,0.1017,0.1018,0.0979,0.102,0.1021,0.1071,0.1078,0.1094,0.1137,0.1141,0.1134,0.1136,0.1138,0.1139,0,0,0,0,0,0,0,0.081,0.0819,0.0902,0.0903,0.0909,0.0926,0.0936,0.0966,0.1021,0.0982,0.0987,0.0996,0.1074,0.1091,0.1097,0.1143,0.1134,0.1137,0.1139,0.114,0.1199,0.1199,0,0,0,0,0,0,0.0798,0.0815,0.0899,0.0905,0.0863,0.0927,0.0938,0.0955,0.1021,0.1031,0.0996,0.0999,0.1085,0.1093,0.1101,0.1117,0.1138,0.1141,0.1143,0.12,0.1199,0.1199,0,0,0,0,0,0,0.0795,0.0805,0.0896,0.0861,0.0874,0.0929,0.0947,0.0957,0.0973,0.1031,0.1041,0.1002,0.1086,0.1096,0.1124,0.1121,0.1142,0.1145,0.12,0.1199,0.1199,0.1147,0,0,0,0,0,0,0.0792,0.0804,0.0806,0.0861,0.0876,0.0915,0.0947,0.0958,0.0978,0.0983,0.104,0.105,0.1087,0.1119,0.1127,0.1126,0.1148,0.1201,0.12,0.1199,0.115,0.1145,0.1141,0,0,0,0,0,0.0788,0.0789,0.0806,0.0816,0.0879,0.0915,0.0924,0.0964,0.0978,0.0982,0.1019,0.1048,0.1119,0.1121,0.1131,0.1131,0.1201,0.12,0.1199,0.1152,0.1146,0.1141,0,0,0,0,0,0,0.0735,0.0797,0.0816,0.0835,0.0869,0.0925,0.0931,0.0957,0.099,0.0993,0.1044,0.1057,0.108,0.1108,0.1109,0.1144,0.1164,0.1165,0.1124,0.1119,0.1115,0.1109,0.1151,0,0,0,0,0,0.0725,0.0746,0.08,0.0812,0.0828,0.0876,0.0893,0.0921,0.096,0.0975,0.1014,0.1052,0.1083,0.1103,0.1135,0.1154,0.1168,0.1159,0.1154,0.1151,0.1151,0.1165,0.1162,0.1195,0.1195,0.1195,0,0,0.0705,0.0742,0.0753,0.0802,0.0832,0.0855,0.0888,0.0911,0.093,0.0979,0.1008,0.1038,0.1084,0.1107,0.112,0.1132,0.1145,0.1149,0.1146,0.1149,0.1164,0.1161,0.1158,0.1194,0.1195,0.1195,0,0,0.0682,0.0711,0.0724,0.0753,0.0797,0.0829,0.0832,0.0884,0.0905,0.0934,0.0972,0.0996,0.1048,0.108,0.1102,0.1091,0.112,0.11,0.1078,0.1091,0.1089,0.1087,0.1084,0.1083,0.11,0.11,0.11,0,0.0653,0.0688,0.0728,0.0749,0.0771,0.0814,0.0829,0.0856,0.0909,0.0924,0.0935,0.1002,0.1036,0.1068,0.1065,0.1082,0.1089,0.1094,0.1085,0.1084,0.1083,0.1081,0.108,0.1098,0.1098,0.1098,0.1098,0,0.0651,0.0674,0.068,0.0728,0.075,0.0767,0.0813,0.0831,0.0857,0.0889,0.0919,0.0961,0.1002,0.1012,0.1039,0.1049,0.1055,0.1075,0.1097,0.1076,0.1076,0.1075,0.1094,0.1095,0.1096,0.1096,0,0,0.0598,0.0667,0.0668,0.0691,0.0742,0.0763,0.0783,0.0822,0.0837,0.0872,0.0892,0.0935,0.0954,0.098,0.1011,0.1022,0.1012,0.1041,0.1043,0.1036,0.1028,0.1013,0.1012,0.1031,0.1031,0.1031,0.1025,0,0.0584,0.062,0.0658,0.0683,0.0706,0.0748,0.0766,0.0801,0.0831,0.0857,0.0892,0.0922,0.0944,0.096,0.0973,0.101,0.1012,0.1011,0.1053,0.1054,0.1041,0.1011,0.0996,0.0988,0.1025,0.1025,0.1025,0,0.0572,0.0603,0.0629,0.0679,0.069,0.0706,0.0745,0.0768,0.0809,0.083,0.0859,0.0891,0.0917,0.0935,0.0973,0.0972,0.0991,0.1013,0.1013,0.102,0.1039,0.1019,0.0986,0.0985,0.1024,0.1024,0.1024,0,0.0532,0.0581,0.0603,0.0621,0.0679,0.0689,0.0714,0.0756,0.0777,0.0811,0.0826,0.0864,0.0885,0.0915,0.0957,0.0966,0.0992,0.1013,0.1013,0.1012,0.1018,0.1017,0.0989,0.1027,0.1027,0.1027,0.1027,0,0.0514,0.0529,0.0586,0.06,0.0619,0.0662,0.068,0.071,0.0746,0.0768,0.0807,0.0828,0.0882,0.0909,0.0943,0.0971,0.098,0.1,0.1009,0.0997,0.0994,0.1011,0.1014,0.1027,0.1027,0.1027,0.1027,0,0.0473,0.0512,0.0539,0.0591,0.0605,0.0617,0.0663,0.0679,0.0711,0.0738,0.0748,0.0799,0.0833,0.0878,0.0927,0.095,0.0974,0.0988,0.096,0.0965,0.0963,0.0963,0.0947,0.0947,0.0983,0.0983,0.0982,0,0.0459,0.0472,0.0524,0.0541,0.0564,0.059,0.0611,0.0655,0.0676,0.0724,0.0735,0.0772,0.0804,0.0857,0.0901,0.0939,0.0954,0.0946,0.0961,0.0949,0.0956,0.0955,0.0958,0.0942,0.0942,0.0941,0.0941,0,0.0431,0.0449,0.0477,0.0512,0.0535,0.0565,0.0597,0.0609,0.066,0.0682,0.0716,0.0741,0.079,0.0827,0.0871,0.09,0.093,0.0935,0.0938,0.0927,0.0911,0.0921,0.0951,0.0936,0.0937,0.0937,0.0937,0.0937,0.0405,0.0418,0.0457,0.0487,0.0515,0.0544,0.0562,0.0595,0.0624,0.0666,0.0691,0.0725,0.0767,0.0829,0.0856,0.0885,0.0897,0.0899,0.0901,0.0901,0.0898,0.0904,0.0893,0.0894,0.0894,0.0894,0.0894,0,0.038,0.0407,0.0434,0.0476,0.05,0.0523,0.0559,0.0579,0.0607,0.0643,0.0673,0.0714,0.075,0.0795,0.0835,0.085,0.0865,0.0859,0.0859,0.0866,0.0885,0.0879,0.0847,0.0847,0.0847,0.0847,0.0847,0.0847,0.037,0.0393,0.0417,0.0455,0.0483,0.0515,0.0534,0.0562,0.059,0.0633,0.0662,0.069,0.0731,0.0774,0.0809,0.0822,0.0836,0.0826,0.0843,0.086,0.0864,0.0869,0.0864,0.0828,0.0828,0.0823,0.0822,0.0822]},{"header":{"parameterUnit":"m.s-1","parameterCategory":1,"la1":30.2991,"la2":30.254,"lo1":-89.0895,"lo2":-89.0444,"dy":0.0017,"dx":0.0017,"nx":28,"ny":28,"refTime":"2025-07-11T21:00:00:Z","depth":0,"parameterNumber":3,"parameterNumberName":"V-component_of_WINDS"},"data":[0,0,0,0,0,0,0,0,0,0,0,0,0,0,0,0,0,0,0,0,0,0,0,0,0,0,0,0,0,0,0,0,0,0,0,0,0,0,0,0,0,0,0,0,0,0,0,0,0,0,0,0,0,0,0,0,0,0,2.3892,2.3891,0,2.3852,2.3852,2.3851,2.3838,2.3839,2.3839,2.3839,2.3797,2.3796,2.3794,0,0,0,0,0,0,0,0,0,0,0,0,0,2.3952,2.3951,2.3892,2.3891,2.3891,2.3852,2.3852,2.3851,2.3838,2.3839,2.3839,2.3839,2.3797,2.3796,2.3794,0,0,0,0,0,0,0,0,0,0,0,0,0,2.392,2.395,2.3892,2.388,2.3878,2.3853,2.3852,2.3851,2.3838,2.3839,2.3839,2.3839,2.3798,2.3796,2.3794,2.3777,0,0,2.3788,2.3787,0,0,0,0,0,0,0,0,2.3922,2.3918,2.3882,2.388,2.3879,2.3851,2.3858,2.3826,2.3838,2.3853,2.3839,2.3839,2.3814,2.3811,2.3803,2.3775,2.3773,2.3788,2.3787,2.3786,2.3785,0,0,0,0,0,0,0,2.3924,2.392,2.3876,2.3881,2.3879,2.3875,2.3871,2.3852,2.3833,2.3852,2.3851,2.3847,2.3814,2.3805,2.3802,2.3773,2.3788,2.3786,2.3785,2.3784,2.3726,2.3725,0,0,0,0,0,0,2.3929,2.3922,2.3877,2.3875,2.3902,2.3874,2.3869,2.3859,2.3833,2.3829,2.3847,2.3846,2.3808,2.3804,2.38,2.3777,2.3786,2.3784,2.3783,2.3726,2.3726,2.3725,0,0,0,0,0,0,2.393,2.3925,2.3879,2.3898,2.3892,2.3872,2.3862,2.3858,2.385,2.3829,2.3825,2.3841,2.3808,2.3803,2.3782,2.3776,2.3783,2.3782,2.3727,2.3726,2.3725,2.3731,0,0,0,0,0,0,2.3932,2.3926,2.392,2.3898,2.3891,2.3863,2.3861,2.3857,2.3847,2.3846,2.3823,2.382,2.3808,2.3785,2.3781,2.3773,2.378,2.3727,2.3726,2.3726,2.3732,2.3731,2.3731,0,0,0,0,0,2.3934,2.3923,2.392,2.3915,2.3883,2.3862,2.3858,2.3846,2.3846,2.384,2.3826,2.382,2.3777,2.3783,2.3778,2.377,2.3727,2.3726,2.3726,2.3732,2.3731,2.3731,0,0,0,0,0,0,2.3945,2.392,2.3916,2.3898,2.3882,2.386,2.3852,2.3845,2.3829,2.3829,2.3813,2.3808,2.3788,2.3777,2.3784,2.375,2.3752,2.375,2.3759,2.3758,2.3757,2.376,2.3778,0,0,0,0,0,2.3945,2.3931,2.391,2.3896,2.3888,2.3871,2.3862,2.3853,2.3836,2.3829,2.3814,2.3797,2.3779,2.3768,2.3751,2.373,2.3724,2.3721,2.3721,2.372,2.3719,2.3705,2.3703,2.3722,2.3722,2.3722,0,0,2.3946,2.3931,2.3923,2.3898,2.3885,2.3869,2.3866,2.385,2.3838,2.3827,2.3806,2.3794,2.3773,2.3752,2.3742,2.3742,2.3712,2.3719,2.3719,2.3717,2.3703,2.3702,2.37,2.3722,2.3722,2.3722,0,0,2.3939,2.3926,2.3913,2.3899,2.3879,2.3867,2.3864,2.3842,2.3834,2.3813,2.3803,2.3788,2.3759,2.3744,2.3732,2.3717,2.371,2.3712,2.3708,2.3695,2.3693,2.3692,2.3685,2.3683,2.371,2.371,2.371,0,2.3942,2.3919,2.3906,2.389,2.3878,2.3868,2.3852,2.384,2.3815,2.3806,2.3807,2.3768,2.3754,2.3728,2.3724,2.3716,2.371,2.3714,2.3695,2.3693,2.3692,2.3684,2.3682,2.371,2.371,2.371,2.371,0,2.3922,2.3906,2.3897,2.3874,2.3861,2.3845,2.3829,2.3817,2.3809,2.3797,2.3774,2.3756,2.3734,2.3728,2.372,2.37,2.37,2.3698,2.3699,2.369,2.3683,2.368,2.3711,2.371,2.371,2.371,0,0,2.3922,2.389,2.3887,2.3875,2.3851,2.3838,2.3821,2.3799,2.3789,2.3772,2.3756,2.373,2.3727,2.3714,2.3704,2.3693,2.3679,2.3691,2.3691,2.3688,2.3653,2.3654,2.3652,2.3675,2.3674,2.3674,2.3654,0,2.3911,2.3881,2.3868,2.3843,2.3827,2.3815,2.38,2.3783,2.377,2.3754,2.374,2.3721,2.3719,2.3711,2.3699,2.3683,2.3672,2.3685,2.3658,2.3657,2.3663,2.3648,2.365,2.3633,2.3652,2.3651,2.3651,0,2.3895,2.3877,2.3851,2.3826,2.3819,2.3806,2.3784,2.3769,2.3748,2.3739,2.3724,2.3714,2.3694,2.3696,2.3667,2.3676,2.3664,2.3655,2.3654,2.365,2.3653,2.3643,2.3627,2.3624,2.3647,2.3647,2.3647,0,2.3895,2.3865,2.3845,2.3835,2.3807,2.3797,2.3785,2.3765,2.3752,2.3732,2.3723,2.3701,2.3689,2.3672,2.3656,2.3659,2.3627,2.3629,2.3618,2.3618,2.3612,2.3612,2.3592,2.3606,2.3606,2.3606,2.3606,0,2.3884,2.3868,2.3844,2.3832,2.3813,2.3797,2.3778,2.3765,2.3746,2.3729,2.3718,2.3702,2.3682,2.3664,2.3651,2.3627,2.3622,2.3613,2.361,2.3614,2.3615,2.3606,2.3606,2.3605,2.3605,2.3605,2.3605,0,2.3882,2.3866,2.3843,2.3817,2.381,2.3797,2.3775,2.3761,2.3747,2.3726,2.372,2.3698,2.3676,2.3658,2.3628,2.3619,2.3594,2.3591,2.3601,2.3599,2.3589,2.359,2.3562,2.3556,2.3574,2.3574,2.3574,0,2.3876,2.3863,2.3836,2.3824,2.3812,2.3793,2.3779,2.3762,2.3748,2.3722,2.3711,2.3688,2.3668,2.3632,2.3612,2.3589,2.3584,2.3576,2.3581,2.3584,2.3582,2.3583,2.358,2.3575,2.3575,2.3575,2.3575,0,2.3866,2.3857,2.3839,2.3817,2.3801,2.3783,2.3764,2.3755,2.3734,2.3718,2.3695,2.3679,2.3648,2.3624,2.3598,2.3584,2.3575,2.3574,2.357,2.3573,2.3579,2.3574,2.3598,2.3574,2.3574,2.3575,2.3575,2.3575,2.386,2.3847,2.3826,2.3805,2.3789,2.3771,2.3756,2.374,2.372,2.3694,2.3685,2.366,2.3637,2.3601,2.3586,2.3565,2.3565,2.356,2.3558,2.3557,2.3556,2.3583,2.3561,2.3561,2.3561,2.3561,2.3561,0,2.3848,2.3833,2.3814,2.3788,2.3771,2.3764,2.3742,2.3728,2.3707,2.3686,2.3666,2.3638,2.3614,2.3592,2.3566,2.3553,2.3548,2.3547,2.3547,2.3544,2.3559,2.3564,2.3551,2.3551,2.3551,2.3551,2.3551,2.3551,2.384,2.3818,2.3807,2.3775,2.376,2.3735,2.3723,2.3706,2.3689,2.3658,2.3638,2.3624,2.3602,2.3574,2.3551,2.3545,2.3535,2.3534,2.3527,2.3542,2.3543,2.3544,2.3549,2.3533,2.3533,2.3513,2.3513,2.3513]}]]